User: anonymous   Login
Location: Bakov nad Jizerou
(50.4784°N, 14.9394°E)
Time: 21:56:35
(UTC+00:00)
Language:

RESURS 01 DEB - Orbit

View from above orbital plane
View from above orbital plane
View from above satellite
View from above satellite

Ground track
Ground track

The orbit data is extracted from the following two-line orbital elements,

1 46515U 94074BB  22022.11844880  .00007577  00000-0  89448-3 0  9999
2 46515  97.9036  75.0847 0004191  81.6145 278.5544 14.84976158 75121
Epoch (UTC): 22 January 2022 02:50:33
Eccentricity: 0.0004191
inclination: 97.9036°
perigee height: 611 km
apogee height: 616 km
right ascension of ascending node: 75.0847°
argument of perigee: 81.6145°
revolutions per day: 14.84976158
mean anomaly at epoch: 278.5544°
orbit number at epoch: 7512

The dashed part of the orbit path shows where the satellite is in the earth's shadow,  

DLR